Location: Pitton
(51.0667°N, 1.7000°W)
Time: 09:36:46
(UTC+00:00)

Timation 2 Rocket - Pass Details

Date: 17 September 2019
Orbit: 908 x 1074 km, 70.0° (Epoch: 17 October)

Event Time Altitude Azimuth Distance (km) Brightness Sun altitude
Rises 19:07:20 0° 199° (SSW) 3,781 7.1 -8.6°
Reaches altitude 10° 19:09:58 10° 197° (SSW) 2,811 6.5 -9.0°
Maximum altitude 19:16:29 68° 116° (ESE) 1,069 4.0 -10.0°
Drops below altitude 10° 19:22:44 10° 36° (NE) 2,710 6.2 -10.9°
Sets 19:25:14 0° 34° (NNE) 3,637 6.8 -11.3°
